Cut Bank, MT

10:51 PM MDT on May 29, 2017 (GMT -0600)
Cut Bank Municipal

Weather History for KCTB - April, 2013

Change the Weather History Date:

Tuesday, April 30, 2013

  Actual Average Record
Temperature  
Mean Temperature 29 °F 45 °F  
Max Temperature 34 °F 58 °F 82 °F (1968)
Min Temperature 24 °F 33 °F 13 °F (1909)
Degree Days  
Heating Degree Days 36 20  
Month to date heating degree days 837 720  
Since 1 July heating degree days 7631 7820  
Cooling Degree Days 0 0  
Month to date cooling degree days 0 0  
Year to date cooling degree days 0 0  
Moisture  
Dew Point 23 °F    
Average Humidity 74    
Maximum Humidity 92    
Minimum Humidity 56    
Precipitation  
Precipitation T in 0.04 in 0.75 in (1951)
Month to date precipitation 0.72 0.78  
Year to date precipitation 2.02 1.69  
Snow  
Snow 0.00 in - - ()
Snow Depth 1.00 in    
Sea Level Pressure  
Sea Level Pressure 30.02 in    
Wind  
Wind Speed 12 mph (NNW)    
Max Wind Speed 25 mph    
Max Gust Speed 30 mph    
Visibility 7 miles    
Events Snow    
T = Trace of Precipitation, MM = Missing Value Source: NWS Daily Summary

Daily Weather History Graph

Daily Weather History Graph

Search for Another Location

Airport or City:

Trip Planner

Search our weather history database for the weather conditions in past years. The results will help you decide how hot, cold, wet, or windy it might be!

Date:

Astronomy

Apr. 30, 2013 Rise Set
Actual Time 6:10 AM MDT 8:43 PM MDT
Civil Twilight 5:35 AM MDT 9:18 PM MDT
Nautical Twilight 4:51 AM MDT 10:03 PM MDT
Astronomical Twilight 3:59 AM MDT 10:55 PM MDT
Moon 1:15 AM MDT 10:39 AM MDT
Length of Visible Light 15h 43m
Length of Day
14h 32m
Waning Gibbous, 69% of the Moon is Illuminated
Apr 30
Waning Gibbous
May 2
Last Quarter
May 9
New
May 17
First Quarter
May 24
Full

Hourly Weather History & Observations

Time (MDT) Temp. Windchill Dew Point Humidity Pressure Visibility Wind Dir Wind Speed Gust Speed Precip Events Conditions
12:41 AM 32.0 °F 23.0 °F 24.8 °F 75% 29.79 in 10.0 mi WNW 11.5 mph - N/A   Overcast
12:56 AM 32.0 °F 24.8 °F 25.0 °F 75% 29.85 in 10.0 mi WNW 8.1 mph - 0.00 in Snow Light Snow
1:56 AM 30.0 °F 23.2 °F 27.0 °F 88% 29.89 in 5.0 mi West 6.9 mph - 0.00 in   Overcast
2:16 AM 30.2 °F 22.6 °F 28.4 °F 93% 29.81 in 8.0 mi West 8.1 mph - 0.00 in   Overcast
2:27 AM 30.2 °F 23.4 °F 28.4 °F 93% 29.81 in 1.8 mi West 6.9 mph - 0.00 in Snow Light Snow
2:35 AM 30.2 °F 23.4 °F 28.4 °F 93% 29.81 in 1.5 mi West 6.9 mph - 0.00 in Snow Light Snow
2:56 AM 30.0 °F 20.5 °F 28.0 °F 92% 29.88 in 1.0 mi WNW 11.5 mph - 0.00 in Snow Light Snow
3:08 AM 30.2 °F 20.8 °F 26.6 °F 86% 29.82 in 1.2 mi WNW 11.5 mph - 0.00 in   Mist
3:33 AM 28.4 °F 17.5 °F 26.6 °F 93% 29.83 in 0.8 mi NNW 13.8 mph - 0.00 in Snow Light Snow
3:40 AM 26.6 °F 13.4 °F 24.8 °F 93% 29.83 in 0.8 mi NNW 18.4 mph - 0.00 in Snow Light Snow
3:56 AM 27.0 °F 13.5 °F 25.0 °F 92% 29.89 in 0.8 mi NNW 19.6 mph - 0.00 in Snow Light Snow
4:07 AM 26.6 °F 14.3 °F 24.8 °F 93% 29.84 in 1.5 mi NNW 16.1 mph - 0.00 in Snow Light Snow
4:11 AM 26.6 °F 14.7 °F 23.0 °F 86% 29.84 in 2.0 mi NNW 15.0 mph - 0.00 in Snow Light Snow
4:18 AM 26.6 °F 16.2 °F 23.0 °F 86% 29.84 in 4.0 mi NW 11.5 mph - 0.00 in   Overcast
4:39 AM 26.6 °F 16.8 °F 23.0 °F 86% 29.84 in 10.0 mi WNW 10.4 mph - 0.00 in   Overcast
4:56 AM 28.0 °F 17.0 °F 21.0 °F 75% 29.91 in 10.0 mi NW 13.8 mph - 0.00 in   Overcast
5:56 AM 27.0 °F 14.3 °F 21.9 °F 81% 29.95 in 10.0 mi NW 17.3 mph - N/A   Overcast
6:56 AM 27.0 °F 12.2 °F 21.0 °F 78% 29.98 in 10.0 mi NNW 24.2 mph 28.8 mph N/A   Overcast
7:44 AM 26.6 °F 12.4 °F 21.2 °F 80% 29.92 in 10.0 mi NNW 21.9 mph - N/A   Overcast
7:56 AM 27.0 °F 12.5 °F 21.9 °F 81% 30.03 in 7.0 mi NNW 23.0 mph 29.9 mph N/A   Overcast
8:12 AM 26.6 °F 12.0 °F 23.0 °F 86% 29.94 in 9.0 mi NNW 23.0 mph - 0.00 in   Overcast
8:40 AM 28.4 °F 15.1 °F 24.8 °F 86% 29.96 in 10.0 mi NNW 20.7 mph - 0.00 in   Overcast
8:51 AM 28.4 °F 15.4 °F 24.8 °F 86% 29.96 in 2.5 mi NNW 19.6 mph - 0.00 in Snow Light Snow
8:56 AM 28.0 °F 14.3 °F 24.1 °F 85% 30.06 in 2.0 mi NNW 21.9 mph 27.6 mph 0.00 in Snow Light Snow
9:04 AM 28.4 °F 14.7 °F 24.8 °F 86% 29.97 in 2.5 mi NNW 21.9 mph - 0.00 in Snow Light Snow
9:13 AM 28.4 °F 15.4 °F 24.8 °F 86% 29.97 in 1.8 mi NNW 19.6 mph - 0.00 in Snow Light Snow
9:17 AM 28.4 °F 15.1 °F 24.8 °F 86% 29.97 in 3.0 mi NNW 20.7 mph - 0.00 in Snow Light Snow
9:51 AM 28.4 °F 14.7 °F 24.8 °F 86% 29.98 in 2.5 mi NNW 21.9 mph - 0.00 in Snow Light Snow
9:56 AM 28.9 °F 15.4 °F 25.0 °F 85% 30.09 in 2.0 mi NNW 21.9 mph - 0.00 in Snow Light Snow
10:14 AM 28.4 °F 14.1 °F 24.8 °F 86% 29.99 in 3.0 mi North 24.2 mph 29.9 mph 0.00 in Snow Light Snow
10:56 AM 28.9 °F 16.1 °F 23.0 °F 78% 30.12 in 10.0 mi North 19.6 mph - 0.00 in   Overcast
11:19 AM 30.2 °F 16.5 °F 24.8 °F 80% 30.02 in 10.0 mi North 24.2 mph 27.6 mph N/A   Mostly Cloudy
11:56 AM 30.0 °F 17.2 °F 24.1 °F 79% 30.14 in 10.0 mi North 20.7 mph - N/A   Mostly Cloudy
12:56 PM 28.9 °F 16.9 °F 21.0 °F 72% 30.17 in 10.0 mi NNW 17.3 mph - N/A   Overcast
1:56 PM 30.9 °F 20.7 °F 21.0 °F 67% 30.18 in 10.0 mi North 13.8 mph 21.9 mph N/A   Overcast
2:56 PM 32.0 °F 23.6 °F 19.0 °F 59% 30.20 in 10.0 mi North 10.4 mph - N/A   Overcast
3:25 PM 32.0 °F 22.5 °F 19.4 °F 60% 30.11 in 10.0 mi NNE 12.7 mph - N/A   Mostly Cloudy
3:56 PM 33.1 °F 24.9 °F 19.0 °F 56% 30.22 in 10.0 mi North 10.4 mph - N/A   Overcast
4:56 PM 32.0 °F 22.1 °F 19.0 °F 59% 30.24 in 10.0 mi North 13.8 mph - N/A   Overcast
5:20 PM 32.0 °F 23.0 °F 19.4 °F 60% 30.14 in 10.0 mi North 11.5 mph - N/A   Overcast
5:56 PM 32.0 °F 24.8 °F 19.9 °F 61% 30.26 in 10.0 mi North 8.1 mph - N/A   Overcast
6:56 PM 30.9 °F 24.3 °F 19.9 °F 64% 30.28 in 10.0 mi NNW 6.9 mph - N/A   Overcast
7:20 PM 30.2 °F 24.3 °F 19.4 °F 64% 30.18 in 10.0 mi NNE 5.8 mph - N/A   Scattered Clouds
7:56 PM 30.0 °F 25.2 °F 19.0 °F 64% 30.30 in 10.0 mi NE 4.6 mph - N/A   Clear
8:56 PM 27.0 °F 21.6 °F 19.0 °F 72% 30.33 in 10.0 mi NE 4.6 mph - N/A   Clear
9:56 PM 26.1 °F - 19.0 °F 75% 30.35 in 10.0 mi Calm Calm - N/A   Mostly Cloudy
10:56 PM 26.6 °F - 19.4 °F 74% 30.25 in 10.0 mi Calm Calm - N/A   Scattered Clouds
11:56 PM 24.1 °F - 18.0 °F 77% 30.38 in 10.0 mi Calm Calm - N/A   Clear